星链-34884(STARLINK-34884)

导读

STARLINK-34884是由美国发射的星链系列卫星,于2025年10月31日发射入轨。星链计划是SpaceX打造的低轨卫星互联网星座项目,旨在为全球提供高速低延迟互联网服务,该卫星的发射进一步扩充了星链星座的在轨卫星规模,推进星座组网进程。

Basic Information
目录编号:
66287
目录名称:
STARLINK-34884
国际标识:
2025-247Y
轨道中心:
EARTH
卫星名称:
星链-34884
卫星全名:
星链-34884(STARLINK-34884)
卫星状态:
在轨 (已飞行308 天)
发射日期:
2025-10-31 UTC
国别 :
美国 (US)
星等 :
--
Orbit Information
数据来源 国际轨道数据 AOE轨道数据
星历时间 2026-09-03T21:35:57+0800
15小时前
查看轨道信息
2026-08-28T17:00:00+0800
6天前
查看轨道信息
半长轴 6840.824km 6840.759km
偏心率 0.0001916 0.0001301
轨道倾角 53.158° 53.155°
近地点辐角 99.844° 75.255°
升交点赤经 81.234° 110.178°
平近点角 260.278° 264.378°
近地点 461.376km 461.732km
远地点 463.998km 463.512km
周期 93.847分钟 93.846分钟
每日圈数 15.344058 15.344276
Detailed Information
固有亮度:
5
最大亮度:
2.5
卫星平台:
Starlink V1.0
覆盖范围:
全球
运营商:
太空探索技术公司
运营商所在国:
美国
制造商(研发单位):
太空探索技术公司
制造商所在国:
美国
使用方式:
暂无
Satellite Introduction
Starlink 计划是 SpaceX 推出的全球卫星互联网项目,通过发射低轨道卫星,为全球尤其是偏远地区提供高速、低延迟的互联网服务。自 2019 年起,Starlink 已部署数千颗卫星,旨在缩小全球数字鸿沟,推动互联网普及。该项目还为军事、航空等行业提供通信支持,带来广泛经济效益。
2D Orbit Map
3D Orbit Map
Orbit Altitude Analysis Chart
Orbit Inclination Analysis Chart
Orbit Comprehensive Analysis Chart
View Comprehensive Chart
Conjunction Data List
Event ID Objects TCA Miss Dist (km) Collision Risk Probability Collision Risk Index (CRI) Action
CDM_260905-032406-448706-628721
2026-09-05T
03:24:13+0000
0.242 km
中距离
5.050314E-4 高风险 0.89
CDM_260905-085105-299806-628721
2026-09-05T
08:51:48+0000
0.749 km
远距离
4.492166E-5 中风险 0.68
CDM_260905-143205-360406-628721
2026-09-05T
14:32:59+0000
0.870 km
远距离
2.614008E-5 中风险 0.63
CDM_260905-125905-360406-628721
2026-09-05T
12:59:11+0000
0.960 km
远距离
1.867963E-5 中风险 0.6
CDM_260905-071805-299806-628721
2026-09-05T
07:18:00+0000
0.989 km
远距离
1.784033E-5 中风险 0.6
CDM_260905-015006-448706-628721
2026-09-05T
01:50:25+0000
1.558 km
极远距离
3.66795E-6 低风险 0.46
CDM_260905-045806-448706-628721
2026-09-05T
04:58:00+0000
2.057 km
极远距离
1.708855E-6 低风险 0.4
CDM_260829-131805-186506-628721
2026-08-29T
13:18:15+0000
2.516 km
极远距离
1.533851E-6 低风险 0.39
CDM_260905-102505-299806-628721
2026-09-05T
10:25:35+0000
2.243 km
极远距离
1.472085E-6 低风险 0.38
CDM_260905-054405-299806-628721
2026-09-05T
05:44:13+0000
2.451 km
极远距离
1.241728E-6 低风险 0.37